FW6434 Weather Reports


Display with metric or nautical units.
time (UTC)temp
F
wind
direction
speed
MPH
gust
MPH
rain 1hr
in
rain 24hr
in
rain mn
in
humidity
%
barometer
mb
20260506080404 71 244 6.0 14.0 0.00 0.00 0.00 62 1006.0
20260506080346 71 198 1.0 14.0 0.00 0.00 0.00 60 1006.4
20260506080331 71 218 2.0 14.0 0.00 0.00 0.00 61 1006.4
20260506080104 71 199 2.0 14.0 0.00 0.00 0.00 61 1006.3
20260506073528 71 169 4.0 9.0 0.00 0.00 0.00 60 1006.2
20260506073427 70 215 0.0 9.0 0.00 0.00 0.00 62 1006.0
20260506073327 69 175 0.0 10.0 0.00 0.00 0.00 62 1006.2
20260506073228 69 203 2.0 10.0 0.00 0.00 0.00 62 1006.2
20260506073128 70 278 4.0 10.0 0.00 0.00 0.00 63 1006.0
20260506073027 70 196 0.0 10.0 0.00 0.00 0.00 62 1006.2
20260506072927 70 152 0.0 10.0 0.00 0.00 0.00 63 1006.2
20260506072827 70 88 0.0 11.0 0.00 0.00 0.00 61 1006.2
20260506072810 70 157 0.0 13.0 0.00 0.00 0.00 62 1006.2
20260506072755 70 205 0.0 13.0 0.00 0.00 0.00 61 1006.0
20260506072528 71 251 6.0 13.0 0.00 0.00 0.00 62 1006.0
20260506072426 71 227 1.0 13.0 0.00 0.00 0.00 60 1006.0
20260506072327 71 145 0.0 13.0 0.00 0.00 0.00 60 1006.0
20260506072227 70 182 0.0 13.0 0.00 0.00 0.00 61 1006.2
20260506072126 70 207 0.0 13.0 0.00 0.00 0.00 62 1006.2
20260506072027 70 193 0.0 13.0 0.00 0.00 0.00 62 1006.0
20260506071926 70 271 3.0 13.0 0.00 0.00 0.00 62 1006.0
20260506071828 71 226 3.0 7.0 0.00 0.00 0.00 61 1006.0
20260506071726 71 177 0.0 10.0 0.00 0.00 0.00 62 1005.9
20260506071626 71 222 1.0 10.0 0.00 0.00 0.00 61 1005.9
20260506071515 71 185 1.0 10.0 0.00 0.00 0.00 61 1006.3
20260506071431 70 177 0.0 11.0 0.00 0.00 0.00 61 1006.2
20260506071416 70 218 1.0 11.0 0.00 0.00 0.00 62 1006.2
20260506071058 69 184 0.0 11.0 0.00 0.00 0.00 63 1006.0
20260506071004 69 196 0.0 11.0 0.00 0.00 0.00 64 1006.0
20260506070956 68 203 0.0 11.0 0.00 0.00 0.00 64 1006.0
20260506070856 68 138 0.0 11.0 0.00 0.00 0.00 64 1006.0
20260506070821 69 192 0.0 11.0 0.00 0.00 0.00 64 1006.0
20260506070806 69 211 6.0 11.0 0.00 0.00 0.00 63 1005.9
20260506070455 70 144 8.0 11.0 0.00 0.00 0.00 61 1005.9
20260506070445 70 231 3.0 9.0 0.00 0.00 0.00 61 1005.9
20260506070337 69 184 0.0 7.0 0.00 0.00 0.00 62 1006.2
20260506070236 69 177 0.0 7.0 0.00 0.00 0.00 63 1005.9
20260506070133 69 190 4.0 7.0 0.00 0.00 0.00 63 1006.2
20260506062510 66 174 2.0 16.0 0.00 0.00 0.00 66 1005.8
20260506062222 66 200 4.0 16.0 0.00 0.00 0.00 66 1005.7
20260506062207 66 20 5.0 16.0 0.00 0.00 0.00 66 1005.8
20260506061920 66 232 1.0 16.0 0.00 0.00 0.00 66 1005.7
20260506061845 66 243 1.0 16.0 0.00 0.00 0.00 65 1005.7
20260506061746 66 179 2.0 13.0 0.00 0.00 0.00 65 1006.0
20260506061645 66 268 4.0 13.0 0.00 0.00 0.00 66 1005.9
20260506061545 66 210 2.0 13.0 0.00 0.00 0.00 66 1005.9
20260506061520 66 165 1.0 13.0 0.00 0.00 0.00 65 1005.7
20260506061507 66 233 4.0 13.0 0.00 0.00 0.00 66 1005.7
20260506061456 66 125 2.0 13.0 0.00 0.00 0.00 66 1005.7
20260506061441 66 216 4.0 13.0 0.00 0.00 0.00 66 1005.8
20260506061206 66 98 0.0 9.0 0.00 0.00 0.00 65 1005.6
20260506060926 66 163 0.0 9.0 0.00 0.00 0.00 65 1005.9
20260506060916 66 207 5.0 11.0 0.00 0.00 0.00 65 1005.9
20260506060901 66 216 5.0 11.0 0.00 0.00 0.00 66 1005.8
20260506060540 66 271 5.0 11.0 0.00 0.00 0.00 65 1005.9
20260506060439 66 198 0.0 11.0 0.00 0.00 0.00 65 1005.8
20260506060411 66 204 2.0 11.0 0.00 0.00 0.00 65 1005.6
20260506060339 66 229 2.0 13.0 0.00 0.00 0.00 65 1005.6
20260506060238 66 246 6.0 15.0 0.00 0.00 0.00 65 1005.6
20260506060138 65 141 1.0 15.0 0.00 0.00 0.00 65 1005.8
20260506051144 64 247 4.0 9.0 0.00 0.00 0.00 66 1005.6
20260506051128 64 212 2.0 9.0 0.00 0.00 0.00 66 1005.5
20260506051105 64 217 5.0 9.0 0.00 0.00 0.00 66 1005.6
20260506051049 64 113 1.0 9.0 0.00 0.00 0.00 66 1005.5
20260506051034 64 223 3.0 9.0 0.00 0.00 0.00 66 1005.4
20260506050758 64 236 6.0 9.0 0.00 0.00 0.00 65 1005.5
20260506050526 64 180 0.0 7.0 0.00 0.00 0.00 66 1005.7
20260506050514 64 203 0.0 7.0 0.00 0.00 0.00 67 1005.3
20260506044823 63 205 2.0 6.0 0.00 0.00 0.00 68 1005.5
20260506044815 63 233 4.0 6.0 0.00 0.00 0.00 68 1005.5
20260506044714 63 225 2.0 6.0 0.00 0.00 0.00 67 1005.4
20260506044614 63 194 2.0 6.0 0.00 0.00 0.00 67 1005.5
20260506044516 63 192 0.0 3.0 0.00 0.00 0.00 67 1005.7
20260506044459 62 199 0.0 3.0 0.00 0.00 0.00 67 1005.6
20260506044443 62 194 0.0 3.0 0.00 0.00 0.00 68 1005.3
20260506044436 62 193 0.0 3.0 0.00 0.00 0.00 68 1005.3
20260506044115 62 204 1.0 3.0 0.00 0.00 0.00 69 1005.6
20260506044015 62 211 0.0 3.0 0.00 0.00 0.00 68 1005.4
20260506043914 61 205 0.0 3.0 0.00 0.00 0.00 68 1005.4
20260506043814 61 213 1.0 3.0 0.00 0.00 0.00 69 1005.5
20260506043711 61 220 2.0 3.0 0.00 0.00 0.00 68 1005.5
20260506043611 61 211 0.0 3.0 0.00 0.00 0.00 68 1005.4
20260506043509 61 209 1.0 3.0 0.00 0.00 0.00 69 1005.5
20260506043410 61 229 3.0 3.0 0.00 0.00 0.00 68 1005.6
20260506043318 61 198 0.0 3.0 0.00 0.00 0.00 69 1005.5
20260506043309 61 201 0.0 3.0 0.00 0.00 0.00 69 1005.5
20260506043208 61 213 1.0 3.0 0.00 0.00 0.00 68 1005.3
20260506043108 61 208 0.0 3.0 0.00 0.00 0.00 68 1005.4
20260506043008 62 204 0.0 1.0 0.00 0.00 0.00 68 1005.4
20260506042909 62 206 0.0 1.0 0.00 0.00 0.00 67 1005.5
20260506042808 61 201 0.0 1.0 0.00 0.00 0.00 68 1005.5
20260506042709 61 193 0.0 0.0 0.00 0.00 0.00 69 1005.4
20260506042608 61 193 0.0 0.0 0.00 0.00 0.00 69 1005.5
20260506042503 60 184 0.0 0.0 0.00 0.00 0.00 70 1005.2
20260506042440 60 193 0.0 0.0 0.00 0.00 0.00 70 1005.3
20260506042424 60 194 0.0 0.0 0.00 0.00 0.00 70 1005.6
20260506042416 60 195 0.0 0.0 0.00 0.00 0.00 70 1005.6
20260506042052 60 192 0.0 0.0 0.00 0.00 0.00 70 1005.5
20260506041952 60 195 0.0 0.0 0.00 0.00 0.00 70 1005.3
20260506041851 60 193 0.0 0.0 0.00 0.00 0.00 70 1005.2
20260506041810 60 190 0.0 0.0 0.00 0.00 0.00 70 1005.5
20260506041748 60 190 0.0 0.0 0.00 0.00 0.00 70 1005.5
20260506041646 60 194 0.0 0.0 0.00 0.00 0.00 70 1005.4
20260506041607 60 196 0.0 0.0 0.00 0.00 0.00 70 1005.5
20260506041553 60 196 0.0 0.0 0.00 0.00 0.00 70 1005.5
20260506041307 60 196 0.0 0.0 0.00 0.00 0.00 70 1005.2
20260506041233 60 198 0.0 0.0 0.00 0.00 0.00 71 1005.5
20260506041133 59 214 0.0 0.0 0.00 0.00 0.00 72 1005.3
20260506041033 58 196 0.0 0.0 0.00 0.00 0.00 72 1005.5
20260506040933 58 196 0.0 0.0 0.00 0.00 0.00 73 1005.4
20260506040805 58 199 0.0 0.0 0.00 0.00 0.00 73 1005.1
20260506040732 58 199 0.0 0.0 0.00 0.00 0.00 73 1005.3
20260506040628 57 200 0.0 0.0 0.00 0.00 0.00 73 1005.3
20260506040556 57 192 0.0 0.0 0.00 0.00 0.00 74 1005.5
20260506040549 57 202 0.0 0.0 0.00 0.00 0.00 74 1005.3
20260506040533 57 203 0.0 0.0 0.00 0.00 0.00 74 1005.5
20260506040517 57 198 0.0 0.0 0.00 0.00 0.00 74 1005.5
20260506040228 57 188 0.0 0.0 0.00 0.00 0.00 74 1005.3
20260506040202 57 187 0.0 0.0 0.00 0.00 0.00 74 1005.4
20260506040146 57 188 0.0 0.0 0.00 0.00 0.00 74 1005.2
20260506035826 57 185 0.0 0.0 0.00 0.00 0.00 74 1005.2
20260506035758 57 185 0.0 0.0 0.00 0.00 0.00 74 1005.2
20260506035727 57 184 0.0 0.0 0.00 0.00 0.00 74 1005.2
20260506035622 57 184 0.0 0.0 0.00 0.00 0.00 74 1005.2
20260506035521 57 181 0.0 0.0 0.00 0.00 0.00 74 1005.4
20260506035422 57 180 0.0 0.0 0.00 0.00 0.00 74 1005.5
20260506035406 57 182 0.0 0.0 0.00 0.00 0.00 74 1005.2
20260506035353 57 178 0.0 1.0 0.00 0.00 0.00 74 1005.2
20260506035341 57 180 0.0 1.0 0.00 0.00 0.00 74 1005.4
20260506035020 57 195 0.0 2.0 0.00 0.00 0.00 74 1005.3
20260506034916 57 194 0.0 2.0 0.00 0.00 0.00 74 1005.4
20260506034857 57 194 0.0 2.0 0.00 0.00 0.00 74 1005.4
20260506034844 57 196 0.0 2.0 0.00 0.00 0.00 74 1005.4
20260506034835 57 192 0.0 2.0 0.00 0.00 0.00 74 1005.3
20260506034551 57 191 0.0 4.0 0.00 0.00 0.00 74 1005.5
20260506034535 57 193 0.0 4.0 0.00 0.00 0.00 73 1005.2
20260506034520 57 198 0.0 4.0 0.00 0.00 0.00 73 1005.4
20260506034506 57 199 0.0 4.0 0.00 0.00 0.00 73 1005.4
20260506034455 57 201 0.0 4.0 0.00 0.00 0.00 73 1005.3
20260506033915 57 197 1.0 4.0 0.00 0.00 0.00 73 1005.3
20260506033845 57 215 2.0 4.0 0.00 0.00 0.00 73 1005.1
20260506033831 57 198 1.0 4.0 0.00 0.00 0.00 73 1005.1
20260506033822 57 211 1.0 4.0 0.00 0.00 0.00 73 1005.3
20260506033807 57 226 2.0 4.0 0.00 0.00 0.00 73 1005.3
20260506033530 57 212 2.0 3.0 0.00 0.00 0.00 73 1005.2
20260506033243 57 200 1.0 3.0 0.00 0.00 0.00 73 1005.2
20260506033211 57 211 2.0 3.0 0.00 0.00 0.00 73 1005.3
20260506033110 57 228 2.0 3.0 0.00 0.00 0.00 73 1005.2
20260506033010 57 228 2.0 3.0 0.00 0.00 0.00 73 1005.1
20260506032910 57 202 2.0 3.0 0.00 0.00 0.00 73 1005.3
20260506032809 57 220 2.0 3.0 0.00 0.00 0.00 73 1005.3
20260506032742 57 215 1.0 3.0 0.00 0.00 0.00 73 1005.3
20260506032709 57 196 1.0 3.0 0.00 0.00 0.00 73 1005.1
20260506032608 57 219 1.0 3.0 0.00 0.00 0.00 73 1005.2
20260506032511 57 210 1.0 3.0 0.00 0.00 0.00 73 1005.2
20260506032410 57 226 2.0 3.0 0.00 0.00 0.00 73 1005.3
20260506032354 57 212 3.0 3.0 0.00 0.00 0.00 73 1005.4
20260506032340 57 218 2.0 3.0 0.00 0.00 0.00 73 1005.4
20260506032329 57 212 0.0 3.0 0.00 0.00 0.00 73 1005.3
20260506032041 57 219 3.0 3.0 0.00 0.00 0.00 72 1005.1
20260506032024 57 234 2.0 3.0 0.00 0.00 0.00 72 1005.1
20260506031736 57 225 2.0 3.0 0.00 0.00 0.00 72 1005.2
20260506031706 57 207 1.0 3.0 0.00 0.00 0.00 72 1005.2
20260506031606 57 211 0.0 3.0 0.00 0.00 0.00 72 1005.4
20260506031531 57 228 3.0 3.0 0.00 0.00 0.00 72 1005.5
20260506031524 57 204 0.0 3.0 0.00 0.00 0.00 72 1005.3
20260506031508 57 209 1.0 3.0 0.00 0.00 0.00 72 1005.2
20260506031453 57 214 1.0 3.0 0.00 0.00 0.00 72 1005.5
20260506031203 57 212 1.0 3.0 0.00 0.00 0.00 72 1005.3
20260506031103 57 212 1.0 3.0 0.00 0.00 0.00 72 1005.2
20260506031004 57 211 1.0 3.0 0.00 0.00 0.00 72 1005.2
20260506030903 57 208 0.0 3.0 0.00 0.00 0.00 72 1005.2
20260506030802 57 214 1.0 3.0 0.00 0.00 0.00 72 1005.3
20260506030734 57 212 2.0 3.0 0.00 0.00 0.00 72 1005.3
20260506030702 58 199 0.0 3.0 0.00 0.00 0.00 72 1005.3
20260506030632 58 213 1.0 3.0 0.00 0.00 0.00 71 1005.1
20260506030617 58 206 0.0 4.0 0.00 0.00 0.00 71 1005.3
20260506030601 58 212 0.0 4.0 0.00 0.00 0.00 71 1005.2
20260506030328 58 198 0.0 4.0 0.00 0.00 0.00 71 1005.3
20260506030317 58 196 0.0 7.0 0.00 0.00 0.00 71 1005.3
20260506025958 58 202 0.0 7.0 0.00 0.00 0.00 71 1005.3
20260506025857 58 207 1.0 7.0 0.00 0.00 0.00 71 1005.4
20260506025803 58 210 1.0 7.0 0.00 0.00 0.00 70 1005.4
20260506025750 58 203 0.0 7.0 0.00 0.00 0.00 70 1005.3
20260506025741 58 214 0.0 7.0 0.00 0.00 0.00 70 1005.3
20260506025717 58 215 2.0 7.0 0.00 0.00 0.00 70 1005.2
20260506025406 59 216 1.0 4.0 0.00 0.00 0.00 68 1005.3
20260506025400 58 186 2.0 7.0 0.00 0.00 0.00 70 1005.3
20260506025349 59 211 0.0 2.0 0.00 0.00 0.00 67 1005.3
20260506025339 58 198 2.0 7.0 0.00 0.00 0.00 70 1005.2
20260506025326 58 231 1.0 6.0 0.00 0.00 0.00 70 1005.1
20260506025315 58 222 4.0 6.0 0.00 0.00 0.00 70 1005.1
20260506025300 58 223 2.0 4.0 0.00 0.00 0.00 70 1005.2
20260506025243 58 194 0.0 4.0 0.00 0.00 0.00 70 1005.3
20260506025226 58 208 2.0 4.0 0.00 0.00 0.00 70 1005.5
20260506024953 58 213 0.0 2.0 0.00 0.00 0.00 70 1005.3
20260506024931 58 199 0.0 2.0 0.00 0.00 0.00 69 1005.3
20260506024916 58 205 1.0 3.0 0.00 0.00 0.00 69 1005.4
20260506024900 58 201 0.0 3.0 0.00 0.00 0.00 69 1005.4
20260506024407 58 203 0.0 4.0 0.00 0.00 0.00 69 1005.6
20260506024343 58 199 0.0 4.0 0.00 0.00 0.00 69 1005.6
20260506024328 58 203 0.0 4.0 0.00 0.00 0.00 69 1005.4
20260506024311 59 198 0.0 4.0 0.00 0.00 0.00 69 1005.2
20260506024035 59 186 0.0 4.0 0.00 0.00 0.00 68 1005.3
20260506023809 59 217 0.0 4.0 0.00 0.00 0.00 68 1005.3
20260506023753 59 223 2.0 4.0 0.00 0.00 0.00 68 1005.3
20260506023737 59 220 0.0 4.0 0.00 0.00 0.00 68 1005.3
20260506023722 59 229 2.0 4.0 0.00 0.00 0.00 68 1005.5
20260506023706 59 212 0.0 3.0 0.00 0.00 0.00 68 1005.2
20260506023653 59 206 1.0 3.0 0.00 0.00 0.00 68 1005.3
20260506023200 59 216 2.0 3.0 0.00 0.00 0.00 67 1005.4
20260506022924 59 206 1.0 2.0 0.00 0.00 0.00 67 1005.3
20260506022634 59 213 2.0 2.0 0.00 0.00 0.00 68 1005.3
20260506022608 59 203 0.0 2.0 0.00 0.00 0.00 68 1005.3
20260506022553 59 217 0.0 3.0 0.00 0.00 0.00 67 1005.2
20260506022234 59 204 0.0 3.0 0.00 0.00 0.00 67 1005.4
20260506022207 59 239 0.0 3.0 0.00 0.00 0.00 67 1005.4
20260506022133 59 202 0.0 3.0 0.00 0.00 0.00 67 1005.2
20260506022052 59 212 0.0 3.0 0.00 0.00 0.00 67 1005.4
20260506022038 59 204 0.0 3.0 0.00 0.00 0.00 67 1005.4
20260506022024 59 200 0.0 3.0 0.00 0.00 0.00 67 1005.5
20260506021753 59 196 0.0 3.0 0.00 0.00 0.00 67 1005.2
20260506021743 59 204 1.0 6.0 0.00 0.00 0.00 67 1005.4
20260506021424 59 199 0.0 6.0 0.00 0.00 0.00 67 1005.3
20260506021326 59 213 1.0 6.0 0.00 0.00 0.00 67 1005.4
20260506021310 59 187 0.0 6.0 0.00 0.00 0.00 67 1005.3
20260506021257 59 185 0.0 6.0 0.00 0.00 0.00 67 1005.3
20260506021248 59 176 0.0 6.0 0.00 0.00 0.00 67 1005.3
20260506021001 59 222 4.0 6.0 0.00 0.00 0.00 67 1005.2
20260506020951 59 204 0.0 6.0 0.00 0.00 0.00 67 1005.3
20260506020935 59 205 0.0 6.0 0.00 0.00 0.00 67 1005.3
20260506020920 59 209 0.0 6.0 0.00 0.00 0.00 67 1005.2
20260506020652 59 212 2.0 8.0 0.00 0.00 0.00 66 1005.4
20260506020636 59 219 1.0 8.0 0.00 0.00 0.00 66 1005.1
20260506020316 59 220 2.0 8.0 0.00 0.00 0.00 66 1005.4
20260506020216 59 196 2.0 8.0 0.00 0.00 0.00 66 1005.3
20260506020203 59 226 1.0 8.0 0.00 0.00 0.00 66 1005.3
20260506020152 59 234 5.0 8.0 0.00 0.00 0.00 66 1005.3
20260506020135 59 187 1.0 8.0 0.00 0.00 0.00 66 1005.2
20260506015807 60 225 2.0 8.0 0.00 0.00 0.00 66 1005.2
20260506015731 59 274 3.0 7.0 0.00 0.00 0.00 66 1005.1
20260506015723 59 214 1.0 8.0 0.00 0.00 0.00 66 1005.4
20260506015711 59 225 5.0 8.0 0.00 0.00 0.00 66 1005.4
20260506015701 59 175 0.0 8.0 0.00 0.00 0.00 66 1005.4
20260506015647 59 227 4.0 8.0 0.00 0.00 0.00 66 1005.5
20260506015422 59 230 4.0 7.0 0.00 0.00 0.00 66 1005.3
20260506015407 59 223 1.0 7.0 0.00 0.00 0.00 66 1005.3
20260506015347 59 274 3.0 7.0 0.00 0.00 0.00 66 1005.1
20260506015027 59 223 3.0 7.0 0.00 0.00 0.00 66 1005.4
20260506014958 59 205 2.0 7.0 0.00 0.00 0.00 66 1005.2
20260506014942 59 229 3.0 7.0 0.00 0.00 0.00 66 1005.4
20260506014625 59 237 5.0 7.0 0.00 0.00 0.00 66 1005.3
20260506014604 59 237 5.0 7.0 0.00 0.00 0.00 66 1005.3
20260506014505 59 232 1.0 4.0 0.00 0.00 0.00 66 1005.2
20260506014405 59 235 2.0 4.0 0.00 0.00 0.00 66 1005.2
20260506014256 59 208 0.0 4.0 0.00 0.00 0.00 66 1005.4
20260506014229 59 211 0.0 4.0 0.00 0.00 0.00 66 1005.3
20260506014217 59 207 0.0 4.0 0.00 0.00 0.00 66 1005.3
20260506014205 59 237 3.0 4.0 0.00 0.00 0.00 66 1005.3
20260506013915 59 192 0.0 0.0 0.00 0.00 0.00 66 1005.2
20260506013907 58 203 0.0 1.0 0.00 0.00 0.00 66 1005.3
20260506013852 59 192 0.0 0.0 0.00 0.00 0.00 66 1005.3
20260506013834 59 192 0.0 0.0 0.00 0.00 0.00 66 1005.2
20260506013535 59 196 0.0 0.0 0.00 0.00 0.00 66 1005.2
20260506013434 59 197 0.0 0.0 0.00 0.00 0.00 65 1005.3
20260506013333 59 197 0.0 0.0 0.00 0.00 0.00 65 1005.2
20260506013233 59 197 0.0 0.0 0.00 0.00 0.00 65 1005.3
20260506013212 59 199 0.0 0.0 0.00 0.00 0.00 65 1005.2
20260506013200 59 200 0.0 0.0 0.00 0.00 0.00 65 1005.2
20260506013146 59 194 0.0 0.0 0.00 0.00 0.00 65 1005.1
20260506012839 60 192 0.0 0.0 0.00 0.00 0.00 63 1005.0
20260506012833 59 206 0.0 0.0 0.00 0.00 0.00 65 1005.1
20260506012818 58 196 0.0 0.0 0.00 0.00 0.00 65 1005.0
20260506012803 58 194 0.0 0.0 0.00 0.00 0.00 66 1005.1
20260506012751 58 192 0.0 0.0 0.00 0.00 0.00 66 1005.1
20260506012532 58 188 0.0 0.0 0.00 0.00 0.00 67 1005.2
20260506012517 58 188 0.0 0.0 0.00 0.00 0.00 67 1005.1
20260506012501 58 188 0.0 0.0 0.00 0.00 0.00 68 1004.9
20260506012225 58 188 0.0 0.0 0.00 0.00 0.00 68 1005.2
20260506012212 58 188 0.0 0.0 0.00 0.00 0.00 67 1005.2
20260506012200 58 189 0.0 0.0 0.00 0.00 0.00 67 1005.2
20260506011936 58 188 0.0 0.0 0.00 0.00 0.00 67 1005.2
20260506011920 58 188 0.0 0.0 0.00 0.00 0.00 67 1005.1
20260506011905 59 189 0.0 0.0 0.00 0.00 0.00 67 1005.1
20260506011849 59 189 0.0 0.0 0.00 0.00 0.00 67 1005.0
20260506011837 59 190 0.0 0.0 0.00 0.00 0.00 66 1005.0
20260506011827 60 191 0.0 0.0 0.00 0.00 0.00 65 1005.3
20260506011810 60 191 0.0 0.0 0.00 0.00 0.00 64 1005.2
20260506011755 60 191 0.0 0.0 0.00 0.00 0.00 63 1005.1
20260506011048 60 192 0.0 0.0 0.00 0.00 0.00 63 1005.0
20260506011034 60 194 0.0 0.0 0.00 0.00 0.00 63 1005.3
20260506011018 60 194 0.0 0.0 0.00 0.00 0.00 62 1005.1
20260506011003 60 181 0.0 0.0 0.00 0.00 0.00 62 1004.9
20260506010941 60 180 0.0 0.0 0.00 0.00 0.00 62 1005.2
20260506010924 60 181 0.0 0.0 0.00 0.00 0.00 62 1005.0
20260506010649 61 181 0.0 2.0 0.00 0.00 0.00 62 1005.0
20260506010407 61 187 0.0 2.0 0.00 0.00 0.00 61 1005.2
20260506005920 62 192 0.0 3.0 0.00 0.00 0.00 60 1005.2
20260506005904 62 193 0.0 3.0 0.00 0.00 0.00 59 1005.3
20260506005847 62 198 0.0 3.0 0.00 0.00 0.00 59 1004.9
20260506005830 62 198 0.0 3.0 0.00 0.00 0.00 59 1005.2
20260506005605 62 200 0.0 3.0 0.00 0.00 0.00 59 1005.2
20260506005321 62 210 1.0 3.0 0.00 0.00 0.00 59 1005.3
20260506005306 62 204 0.0 3.0 0.00 0.00 0.00 59 1005.2
20260506005037 62 218 1.0 0.0 0.00 0.00 0.00 59 1005.4
20260506004730 62 218 1.0 3.0 0.00 0.00 0.00 59 1005.4
20260506004628 62 225 2.0 3.0 0.00 0.00 0.00 59 1005.5
20260506004531 62 224 2.0 3.0 0.00 0.00 0.00 59 1005.3
20260506004522 62 213 2.0 3.0 0.00 0.00 0.00 59 1005.3
20260506004417 62 204 0.0 4.0 0.00 0.00 0.00 59 1005.4
20260506004317 62 201 0.0 4.0 0.00 0.00 0.00 59 1005.3
20260506004217 62 200 0.0 4.0 0.00 0.00 0.00 59 1005.3
20260506004117 62 210 0.0 4.0 0.00 0.00 0.00 59 1005.3
20260506004025 62 207 1.0 4.0 0.00 0.00 0.00 59 1005.2
20260506004004 62 225 1.0 4.0 0.00 0.00 0.00 59 1005.2
20260506003903 62 204 0.0 4.0 0.00 0.00 0.00 58 1005.2
20260506003803 62 206 2.0 4.0 0.00 0.00 0.00 58 1005.5
20260506003705 62 186 0.0 6.0 0.00 0.00 0.00 58 1005.4
20260506003603 62 217 1.0 6.0 0.00 0.00 0.00 58 1005.5
20260506003524 63 200 0.0 6.0 0.00 0.00 0.00 58 1005.4
20260506003517 63 225 3.0 8.0 0.00 0.00 0.00 57 1005.1
20260506003512 63 218 2.0 6.0 0.00 0.00 0.00 58 1005.4
20260506003455 63 211 1.0 6.0 0.00 0.00 0.00 58 1005.4
20260506003440 63 207 0.0 6.0 0.00 0.00 0.00 58 1005.3
20260506003214 63 223 2.0 6.0 0.00 0.00 0.00 58 1005.1
20260506003157 63 209 0.0 8.0 0.00 0.00 0.00 58 1005.5
20260506003142 63 209 2.0 8.0 0.00 0.00 0.00 58 1005.2
20260506003135 63 206 1.0 8.0 0.00 0.00 0.00 58 1005.2
20260506003119 63 199 1.0 8.0 0.00 0.00 0.00 57 1005.4
20260506003103 63 199 2.0 8.0 0.00 0.00 0.00 57 1005.1
20260506002828 63 226 3.0 8.0 0.00 0.00 0.00 57 1005.4
20260506002559 63 205 1.0 8.0 0.00 0.00 0.00 57 1005.1
20260506002140 63 236 5.0 7.0 0.00 0.00 0.00 56 1005.2
20260506002039 63 194 1.0 7.0 0.00 0.00 0.00 57 1005.4
20260506002011 63 193 1.0 4.0 0.00 0.00 0.00 57 1005.3
20260506001930 64 199 0.0 4.0 0.00 0.00 0.00 56 1005.3
20260506001849 64 210 0.0 4.0 0.00 0.00 0.00 56 1005.2
20260506001832 64 211 2.0 4.0 0.00 0.00 0.00 56 1005.1
20260506001817 64 227 2.0 4.0 0.00 0.00 0.00 56 1005.4
20260506001801 64 228 1.0 4.0 0.00 0.00 0.00 56 1005.4
20260506001748 64 194 0.0 4.0 0.00 0.00 0.00 56 1005.3
20260506001740 64 177 0.0 4.0 0.00 0.00 0.00 56 1005.4
20260506001502 64 207 1.0 7.0 0.00 0.00 0.00 56 1005.5
20260506000954 64 210 1.0 7.0 0.00 0.00 0.00 56 1005.1
20260506000922 64 224 0.0 7.0 0.00 0.00 0.00 56 1005.2
20260506000851 64 220 2.0 7.0 0.00 0.00 0.00 56 1005.3
20260506000834 64 221 1.0 7.0 0.00 0.00 0.00 56 1005.3
20260506000817 64 194 0.0 7.0 0.00 0.00 0.00 56 1005.3
20260506000802 64 194 0.0 7.0 0.00 0.00 0.00 55 1005.1
20260506000749 64 204 2.0 7.0 0.00 0.00 0.00 55 1005.1
20260506000213 64 214 4.0 6.0 0.00 0.00 0.00 55 1005.2
20260506000134 64 172 0.0 9.0 0.00 0.00 0.00 55 1005.4
20260506000117 64 205 2.0 11.0 0.00 0.00 0.00 55 1005.4
20260506000104 64 202 0.0 11.0 0.00 0.00 0.00 55 1005.4
20260506000045 64 226 1.0 11.0 0.00 0.00 0.00 55 1005.4
20260506000029 64 211 4.0 11.0 0.00 0.00 0.00 55 1005.2
20260506000014 64 204 2.0 11.0 0.00 0.00 0.00 55 1005.4
20260505235520 64 225 2.0 11.0 0.00 0.00 0.00 55 1005.3
20260505235511 64 203 0.0 11.0 0.00 0.00 0.00 55 1005.2
20260505235455 64 204 2.0 11.0 0.00 0.00 0.00 55 1005.5
20260505235437 65 221 3.0 11.0 0.00 0.00 0.00 55 1005.4
20260505235421 65 222 2.0 9.0 0.00 0.00 0.00 55 1005.2
20260505235405 65 153 0.0 9.0 0.00 0.00 0.00 55 1005.6
20260505235352 65 213 4.0 9.0 0.00 0.00 0.00 55 1005.4
20260505234557 65 233 2.0 8.0 0.00 0.00 0.00 55 1005.4
20260505234457 65 219 1.0 8.0 0.00 0.00 0.00 55 1005.4
20260505234429 65 214 2.0 8.0 0.00 0.00 0.00 55 1005.3
20260505234359 65 215 2.0 8.0 0.00 0.00 0.00 55 1005.3
20260505234258 65 206 2.0 11.0 0.00 0.00 0.00 55 1005.3
20260505234157 65 210 4.0 11.0 0.00 0.00 0.00 54 1005.5
20260505234044 65 216 2.0 11.0 0.00 0.00 0.00 54 1005.6
20260505233945 65 235 4.0 11.0 0.00 0.00 0.00 54 1005.5
20260505233931 65 227 4.0 11.0 0.00 0.00 0.00 54 1005.4
20260505233845 65 232 4.0 11.0 0.00 0.00 0.00 54 1005.4
20260505233745 65 234 4.0 11.0 0.00 0.00 0.00 54 1005.5
20260505233645 65 235 4.0 11.0 0.00 0.00 0.00 54 1005.6
20260505233545 65 218 1.0 11.0 0.00 0.00 0.00 54 1005.6
20260505233422 65 207 6.0 11.0 0.00 0.00 0.00 54 1005.5
20260505233341 65 230 5.0 11.0 0.00 0.00 0.00 54 1005.5
20260505233241 65 237 6.0 11.0 0.00 0.00 0.00 54 1005.4
20260505233140 65 215 2.0 11.0 0.00 0.00 0.00 54 1005.5
20260505233038 65 220 9.0 11.0 0.00 0.00 0.00 54 1005.7
20260505232936 65 192 0.0 10.0 0.00 0.00 0.00 54 1005.6
20260505232920 65 188 2.0 10.0 0.00 0.00 0.00 54 1005.6
20260505232834 65 233 4.0 10.0 0.00 0.00 0.00 54 1005.5
20260505232800 65 217 8.0 17.0 0.00 0.00 0.00 54 1005.6
20260505232752 65 233 3.0 10.0 0.00 0.00 0.00 54 1005.7
20260505232736 65 208 4.0 10.0 0.00 0.00 0.00 54 1005.7
20260505232719 65 184 2.0 10.0 0.00 0.00 0.00 54 1005.7
20260505232657 65 94 2.0 10.0 0.00 0.00 0.00 54 1005.7
20260505232640 65 181 2.0 10.0 0.00 0.00 0.00 54 1005.7
20260505232623 65 200 1.0 17.0 0.00 0.00 0.00 54 1005.6
20260505232608 65 186 1.0 17.0 0.00 0.00 0.00 54 1005.7
20260505231816 65 219 1.0 17.0 0.00 0.00 0.00 55 1005.7
20260505231716 65 219 3.0 17.0 0.00 0.00 0.00 55 1005.6
20260505231615 65 229 0.0 17.0 0.00 0.00 0.00 55 1006.0
20260505231515 65 213 0.0 17.0 0.00 0.00 0.00 55 1005.7
20260505231415 65 200 2.0 17.0 0.00 0.00 0.00 54 1005.7
20260505231316 65 254 14.0 17.0 0.00 0.00 0.00 54 1005.9
20260505231241 65 220 3.0 9.0 0.00 0.00 0.00 54 1005.6
20260505231224 65 196 0.0 9.0 0.00 0.00 0.00 55 1005.5
20260505230904 66 229 6.0 14.0 0.00 0.00 0.00 54 1005.6
20260505230804 66 201 2.0 14.0 0.00 0.00 0.00 54 1005.7
20260505230704 66 196 2.0 14.0 0.00 0.00 0.00 54 1005.8
20260505230603 66 179 2.0 14.0 0.00 0.00 0.00 54 1005.8
20260505230504 66 214 1.0 14.0 0.00 0.00 0.00 54 1005.6
20260505230406 66 156 1.0 14.0 0.00 0.00 0.00 54 1005.6
20260505230336 66 199 1.0 14.0 0.00 0.00 0.00 54 1005.6
20260505230016 66 219 10.0 14.0 0.00 0.00 0.00 53 1005.6
20260505225916 66 227 2.0 14.0 0.00 0.00 0.00 54 1005.7
20260505225816 65 189 4.0 14.0 0.00 0.00 0.00 54 1005.7
20260505225717 65 200 4.0 14.0 0.00 0.00 0.00 54 1005.8
20260505225617 65 213 6.0 14.0 0.00 0.00 0.00 55 1005.7
20260505225538 65 196 3.0 8.0 0.00 0.00 0.00 56 1006.0
20260505225531 65 232 4.0 7.0 0.00 0.00 0.00 56 1005.8
20260505225525 65 213 3.0 14.0 0.00 0.00 0.00 55 1005.9
20260505225510 65 229 3.0 14.0 0.00 0.00 0.00 56 1005.8
20260505225448 66 154 1.0 14.0 0.00 0.00 0.00 55 1005.7
20260505225431 66 201 3.0 14.0 0.00 0.00 0.00 55 1005.8
20260505225154 65 148 3.0 13.0 0.00 0.00 0.00 55 1005.8
20260505224929 65 239 6.0 11.0 0.00 0.00 0.00 55 1005.5
20260505224913 65 192 3.0 11.0 0.00 0.00 0.00 56 1005.7
20260505224907 65 192 3.0 11.0 0.00 0.00 0.00 56 1005.7
20260505224850 65 204 2.0 11.0 0.00 0.00 0.00 56 1005.8
20260505224835 65 194 4.0 11.0 0.00 0.00 0.00 56 1005.7
20260505224819 65 213 5.0 8.0 0.00 0.00 0.00 56 1005.9
20260505224803 65 240 5.0 7.0 0.00 0.00 0.00 56 1005.8
20260505224536 65 208 0.0 7.0 0.00 0.00 0.00 56 1005.8
20260505224037 65 209 2.0 7.0 0.00 0.00 0.00 56 1006.2
20260505224022 65 204 1.0 7.0 0.00 0.00 0.00 56 1005.9
20260505223748 66 202 0.0 8.0 0.00 0.00 0.00 56 1006.0
20260505223742 65 194 2.0 8.0 0.00 0.00 0.00 56 1006.0
20260505223727 65 192 1.0 8.0 0.00 0.00 0.00 56 1006.0
20260505223711 65 218 4.0 8.0 0.00 0.00 0.00 56 1005.9
20260505223656 65 207 0.0 8.0 0.00 0.00 0.00 56 1005.9
20260505223640 66 240 4.0 8.0 0.00 0.00 0.00 56 1006.0
20260505223413 66 208 2.0 8.0 0.00 0.00 0.00 56 1005.8
20260505223146 66 186 1.0 8.0 0.00 0.00 0.00 55 1006.0
20260505223130 66 214 0.0 8.0 0.00 0.00 0.00 56 1006.0
20260505223115 66 190 0.0 8.0 0.00 0.00 0.00 56 1005.9
20260505222841 66 212 4.0 4.0 0.00 0.00 0.00 56 1005.9
20260505222833 66 220 2.0 4.0 0.00 0.00 0.00 56 1005.7
20260505222817 66 200 0.0 6.0 0.00 0.00 0.00 56 1005.7
20260505222554 66 206 2.0 6.0 0.00 0.00 0.00 56 1005.8
20260505222537 66 227 4.0 8.0 0.00 0.00 0.00 56 1005.8
20260505222521 66 213 2.0 8.0 0.00 0.00 0.00 56 1006.0
20260505222255 66 218 2.0 8.0 0.00 0.00 0.00 56 1005.8
20260505222236 66 243 2.0 8.0 0.00 0.00 0.00 56 1005.9
20260505222221 66 245 3.0 8.0 0.00 0.00 0.00 56 1006.0
20260505221946 66 196 0.0 8.0 0.00 0.00 0.00 56 1005.9
20260505221933 66 209 1.0 8.0 0.00 0.00 0.00 55 1005.9
20260505221616 66 229 3.0 8.0 0.00 0.00 0.00 55 1005.8
20260505221547 66 198 0.0 8.0 0.00 0.00 0.00 56 1006.2
20260505221530 66 201 0.0 8.0 0.00 0.00 0.00 55 1006.2
20260505221514 66 196 2.0 8.0 0.00 0.00 0.00 55 1005.8
20260505221501 66 232 3.0 9.0 0.00 0.00 0.00 55 1005.8
20260505221452 66 214 3.0 9.0 0.00 0.00 0.00 55 1005.8
20260505220910 66 199 1.0 9.0 0.00 0.00 0.00 55 1006.0
20260505220808 66 202 4.0 9.0 0.00 0.00 0.00 55 1005.8
20260505220741 66 199 3.0 9.0 0.00 0.00 0.00 55 1005.8
20260505220709 66 200 1.0 9.0 0.00 0.00 0.00 56 1006.0
20260505220644 66 192 4.0 8.0 0.00 0.00 0.00 56 1005.9
20260505220636 66 208 3.0 9.0 0.00 0.00 0.00 56 1005.8
20260505220620 66 225 2.0 9.0 0.00 0.00 0.00 56 1006.0
20260505220604 66 211 3.0 9.0 0.00 0.00 0.00 55 1006.2
20260505220547 66 196 0.0 8.0 0.00 0.00 0.00 56 1005.9
20260505220320 66 213 4.0 8.0 0.00 0.00 0.00 55 1006.0
20260505220033 66 187 1.0 8.0 0.00 0.00 0.00 56 1006.0
20260505220019 66 217 2.0 8.0 0.00 0.00 0.00 56 1005.9
20260505220002 66 223 2.0 8.0 0.00 0.00 0.00 56 1006.0
20260505215949 66 199 2.0 8.0 0.00 0.00 0.00 56 1006.0
20260505215940 66 203 1.0 8.0 0.00 0.00 0.00 56 1006.0
20260505215359 66 196 0.0 8.0 0.00 0.00 0.00 56 1006.2
20260505215258 66 188 0.0 8.0 0.00 0.00 0.00 56 1006.4
20260505215229 66 204 5.0 8.0 0.00 0.00 0.00 56 1006.2
20260505215158 66 214 0.0 8.0 0.00 0.00 0.00 56 1006.2
20260505215126 66 184 2.0 8.0 0.00 0.00 0.00 56 1006.2
20260505215111 66 207 6.0 8.0 0.00 0.00 0.00 56 1006.3
20260505215056 66 162 0.0 8.0 0.00 0.00 0.00 56 1006.0
20260505215039 66 189 2.0 8.0 0.00 0.00 0.00 56 1006.2
20260505215026 66 232 1.0 9.0 0.00 0.00 0.00 56 1005.9
20260505214453 67 196 0.0 9.0 0.00 0.00 0.00 56 1006.2
20260505214351 67 212 2.0 9.0 0.00 0.00 0.00 56 1006.2
20260505214251 67 178 0.0 9.0 0.00 0.00 0.00 56 1005.9
20260505214225 67 200 1.0 9.0 0.00 0.00 0.00 56 1006.2
20260505214151 67 186 1.0 9.0 0.00 0.00 0.00 56 1006.2
20260505214051 67 200 1.0 9.0 0.00 0.00 0.00 56 1006.3
20260505213951 67 204 1.0 9.0 0.00 0.00 0.00 55 1006.0
20260505213843 67 202 2.0 9.0 0.00 0.00 0.00 56 1006.2
20260505213810 67 219 3.0 8.0 0.00 0.00 0.00 55 1006.4
20260505213759 67 184 2.0 8.0 0.00 0.00 0.00 55 1006.0
20260505213747 67 222 1.0 8.0 0.00 0.00 0.00 55 1006.2
20260505213512 67 182 0.0 10.0 0.00 0.00 0.00 55 1006.4
20260505213503 67 200 1.0 10.0 0.00 0.00 0.00 55 1006.0
20260505213447 67 213 1.0 10.0 0.00 0.00 0.00 55 1006.2
20260505213431 67 184 2.0 10.0 0.00 0.00 0.00 55 1006.4
20260505213203 67 179 0.0 10.0 0.00 0.00 0.00 55 1006.2
20260505213147 67 184 2.0 10.0 0.00 0.00 0.00 55 1006.2
20260505212901 67 152 1.0 10.0 0.00 0.00 0.00 55 1006.4
20260505212852 67 205 1.0 13.0 0.00 0.00 0.00 55 1006.2
20260505212823 67 199 0.0 13.0 0.00 0.00 0.00 55 1006.2
20260505212812 67 215 3.0 13.0 0.00 0.00 0.00 55 1006.3
20260505212756 67 208 6.0 13.0 0.00 0.00 0.00 55 1006.3
20260505212254 67 215 2.0 13.0 0.00 0.00 0.00 55 1006.3
20260505212235 67 218 5.0 13.0 0.00 0.00 0.00 55 1006.5
20260505212219 67 217 2.0 13.0 0.00 0.00 0.00 55 1006.5
20260505212204 67 164 3.0 10.0 0.00 0.00 0.00 55 1006.5
20260505212147 67 202 1.0 10.0 0.00 0.00 0.00 55 1006.4
20260505211652 67 187 4.0 10.0 0.00 0.00 0.00 54 1006.2
20260505211636 67 229 8.0 10.0 0.00 0.00 0.00 54 1006.4
20260505211315 68 234 4.0 10.0 0.00 0.00 0.00 54 1006.3
20260505211216 68 207 1.0 13.0 0.00 0.00 0.00 54 1006.5
20260505211116 68 226 5.0 13.0 0.00 0.00 0.00 54 1006.4
20260505211016 68 225 4.0 13.0 0.00 0.00 0.00 54 1006.3
20260505210915 68 216 6.0 13.0 0.00 0.00 0.00 54 1006.4
20260505210815 68 223 5.0 13.0 0.00 0.00 0.00 54 1006.2
20260505210716 68 204 1.0 13.0 0.00 0.00 0.00 53 1006.4
20260505210615 68 244 6.0 13.0 0.00 0.00 0.00 53 1006.4
20260505210513 68 203 5.0 13.0 0.00 0.00 0.00 53 1006.2
20260505210356 68 211 3.0 13.0 0.00 0.00 0.00 53 1006.3
20260505210333 68 219 2.0 10.0 0.00 0.00 0.00 53 1006.4
20260505210010 68 208 2.0 10.0 0.00 0.00 0.00 53 1006.0
20260505205910 68 229 3.0 10.0 0.00 0.00 0.00 53 1006.3
20260505205809 68 224 2.0 10.0 0.00 0.00 0.00 53 1006.3
20260505205705 68 219 4.0 10.0 0.00 0.00 0.00 53 1006.2
20260505205605 68 228 7.0 10.0 0.00 0.00 0.00 53 1006.4
20260505205505 68 200 1.0 10.0 0.00 0.00 0.00 53 1006.4
20260505205405 67 178 0.0 10.0 0.00 0.00 0.00 53 1006.3
20260505205322 68 182 1.0 7.0 0.00 0.00 0.00 53 1006.2
20260505205316 67 190 7.0 9.0 0.00 0.00 0.00 53 1006.4
20260505205254 67 190 2.0 7.0 0.00 0.00 0.00 53 1006.2
20260505205227 67 196 0.0 7.0 0.00 0.00 0.00 53 1006.3
20260505205208 67 181 1.0 7.0 0.00 0.00 0.00 53 1006.2
20260505204930 67 206 2.0 7.0 0.00 0.00 0.00 53 1006.2
20260505204913 68 182 1.0 7.0 0.00 0.00 0.00 53 1006.2
20260505204604 68 198 1.0 7.0 0.00 0.00 0.00 53 1006.2
20260505204500 68 205 0.0 7.0 0.00 0.00 0.00 52 1006.2
20260505204359 68 191 0.0 7.0 0.00 0.00 0.00 52 1006.3
20260505204259 67 207 4.0 7.0 0.00 0.00 0.00 52 1006.3
20260505204159 67 160 2.0 4.0 0.00 0.00 0.00 52 1006.2
20260505204100 67 200 1.0 4.0 0.00 0.00 0.00 52 1006.2
20260505204032 68 194 2.0 4.0 0.00 0.00 0.00 52 1006.3
20260505204024 67 184 1.0 4.0 0.00 0.00 0.00 52 1006.3
20260505204009 67 202 0.0 4.0 0.00 0.00 0.00 53 1006.0
20260505203954 68 188 0.0 4.0 0.00 0.00 0.00 52 1006.0
20260505203931 68 196 0.0 4.0 0.00 0.00 0.00 52 1006.0
20260505203916 68 199 1.0 4.0 0.00 0.00 0.00 52 1006.2
20260505203900 68 192 0.0 4.0 0.00 0.00 0.00 52 1005.8
20260505203845 68 181 1.0 4.0 0.00 0.00 0.00 52 1006.3
20260505203829 68 194 1.0 4.0 0.00 0.00 0.00 52 1006.5
20260505203807 68 190 0.0 3.0 0.00 0.00 0.00 52 1006.3
20260505203309 68 194 0.0 4.0 0.00 0.00 0.00 52 1006.0
20260505203253 68 196 0.0 4.0 0.00 0.00 0.00 52 1006.0
20260505202459 68 204 1.0 6.0 0.00 0.00 0.00 52 1006.3
20260505202400 68 199 0.0 6.0 0.00 0.00 0.00 52 1006.2
20260505202259 68 171 0.0 6.0 0.00 0.00 0.00 52 1006.2
20260505202159 68 201 2.0 6.0 0.00 0.00 0.00 52 1006.0
20260505202100 68 187 1.0 6.0 0.00 0.00 0.00 51 1006.0
20260505202000 68 199 1.0 6.0 0.00 0.00 0.00 52 1006.0
20260505201903 68 199 1.0 6.0 0.00 0.00 0.00 52 1006.3
20260505201832 69 203 1.0 4.0 0.00 0.00 0.00 50 1006.0
20260505201825 68 185 0.0 4.0 0.00 0.00 0.00 51 1006.2
20260505201818 68 190 0.0 6.0 0.00 0.00 0.00 52 1006.3
20260505201756 68 174 0.0 6.0 0.00 0.00 0.00 51 1006.2
20260505201740 68 175 1.0 6.0 0.00 0.00 0.00 51 1006.3
20260505201724 68 199 1.0 6.0 0.00 0.00 0.00 52 1006.0
20260505201707 68 207 1.0 6.0 0.00 0.00 0.00 52 1006.4
20260505201651 68 188 0.0 6.0 0.00 0.00 0.00 51 1005.9
20260505201628 68 198 0.0 6.0 0.00 0.00 0.00 51 1006.2
20260505201537 68 174 0.0 6.0 0.00 0.00 0.00 51 1006.0
20260505201512 68 196 2.0 6.0 0.00 0.00 0.00 51 1006.2
20260505201231 68 190 0.0 6.0 0.00 0.00 0.00 51 1006.3
20260505201209 68 207 0.0 6.0 0.00 0.00 0.00 51 1006.0
20260505201153 68 198 1.0 6.0 0.00 0.00 0.00 51 1006.2
20260505200918 68 209 0.0 6.0 0.00 0.00 0.00 50 1006.2
20260505200902 68 224 2.0 6.0 0.00 0.00 0.00 51 1006.2
20260505200413 68 194 0.0 4.0 0.00 0.00 0.00 51 1006.2
20260505195929 68 204 1.0 4.0 0.00 0.00 0.00 51 1006.2
20260505195913 69 190 0.0 4.0 0.00 0.00 0.00 50 1005.9
20260505195857 69 203 1.0 4.0 0.00 0.00 0.00 50 1006.0
20260505195546 69 187 0.0 4.0 0.00 0.00 0.00 50 1006.0
20260505195446 69 187 0.0 4.0 0.00 0.00 0.00 50 1006.2
20260505195341 69 165 0.0 4.0 0.00 0.00 0.00 50 1006.2
20260505195241 69 191 0.0 6.0 0.00 0.00 0.00 50 1006.0
20260505195141 69 190 2.0 6.0 0.00 0.00 0.00 50 1006.2
20260505195041 69 182 0.0 6.0 0.00 0.00 0.00 50 1006.0
20260505194941 69 191 2.0 6.0 0.00 0.00 0.00 49 1006.2
20260505194841 69 204 0.0 6.0 0.00 0.00 0.00 49 1006.3
20260505194741 69 181 1.0 7.0 0.00 0.00 0.00 49 1005.9
20260505194641 69 208 2.0 7.0 0.00 0.00 0.00 50 1006.2
20260505194540 69 202 0.0 8.0 0.00 0.00 0.00 50 1006.0
20260505194439 69 208 1.0 8.0 0.00 0.00 0.00 49 1006.3
20260505194339 69 198 3.0 8.0 0.00 0.00 0.00 49 1006.0
20260505194240 69 200 0.0 8.0 0.00 0.00 0.00 50 1006.2
20260505194136 69 192 1.0 8.0 0.00 0.00 0.00 50 1006.3
20260505194128 69 192 1.0 8.0 0.00 0.00 0.00 49 1006.2
20260505194028 69 206 0.0 8.0 0.00 0.00 0.00 49 1006.2
20260505194003 69 188 0.0 8.0 0.00 0.00 0.00 49 1006.2
20260505193947 69 194 5.0 8.0 0.00 0.00 0.00 49 1006.4
20260505193635 69 202 5.0 8.0 0.00 0.00 0.00 48 1005.9
20260505193626 69 202 5.0 8.0 0.00 0.00 0.00 49 1006.2
20260505193521 69 189 0.0 6.0 0.00 0.00 0.00 49 1006.0
20260505193423 69 264 4.0 6.0 0.00 0.00 0.00 49 1006.3
20260505193321 69 187 0.0 6.0 0.00 0.00 0.00 49 1006.0
20260505193301 69 216 4.0 6.0 0.00 0.00 0.00 48 1006.2
20260505193246 69 190 0.0 3.0 0.00 0.00 0.00 48 1006.0
20260505193237 69 200 0.0 3.0 0.00 0.00 0.00 48 1006.0
20260505192953 69 182 0.0 3.0 0.00 0.00 0.00 48 1006.0
20260505192937 69 196 1.0 3.0 0.00 0.00 0.00 48 1006.3
20260505192617 69 187 1.0 3.0 0.00 0.00 0.00 48 1006.2
20260505192516 69 188 0.0 3.0 0.00 0.00 0.00 48 1006.3
20260505192417 69 191 0.0 3.0 0.00 0.00 0.00 48 1006.0
20260505192317 69 192 0.0 3.0 0.00 0.00 0.00 48 1006.2
20260505192216 69 189 0.0 3.0 0.00 0.00 0.00 47 1006.3
20260505192116 69 183 0.0 3.0 0.00 0.00 0.00 48 1006.4
20260505192017 70 189 1.0 6.0 0.00 0.00 0.00 48 1006.5
20260505191952 70 187 0.0 6.0 0.00 0.00 0.00 47 1006.0
20260505191937 70 198 2.0 6.0 0.00 0.00 0.00 47 1006.3
20260505191623 70 194 0.0 6.0 0.00 0.00 0.00 48 1006.4
20260505191615 70 185 0.0 6.0 0.00 0.00 0.00 47 1006.4
20260505191515 70 192 0.0 6.0 0.00 0.00 0.00 47 1006.2
20260505191443 70 200 1.0 6.0 0.00 0.00 0.00 47 1006.3
20260505191427 70 198 1.0 6.0 0.00 0.00 0.00 47 1006.2
20260505191133 70 221 4.0 7.0 0.00 0.00 0.00 47 1006.4
20260505191124 70 234 2.0 7.0 0.00 0.00 0.00 47 1006.3
20260505191108 70 208 2.0 7.0 0.00 0.00 0.00 47 1006.2
20260505191052 70 195 2.0 7.0 0.00 0.00 0.00 47 1006.2
20260505191035 70 166 0.0 7.0 0.00 0.00 0.00 47 1006.2
20260505190801 70 220 2.0 7.0 0.00 0.00 0.00 47 1006.3
20260505190753 70 198 0.0 7.0 0.00 0.00 0.00 47 1006.3
20260505190738 70 199 1.0 7.0 0.00 0.00 0.00 47 1006.3
20260505190722 70 214 2.0 7.0 0.00 0.00 0.00 46 1006.4
20260505190706 70 204 1.0 7.0 0.00 0.00 0.00 47 1006.3
20260505190431 71 198 0.0 4.0 0.00 0.00 0.00 47 1006.2
20260505185857 71 202 3.0 4.0 0.00 0.00 0.00 46 1006.3
20260505185758 71 192 0.0 4.0 0.00 0.00 0.00 46 1006.3
20260505185733 71 194 1.0 4.0 0.00 0.00 0.00 46 1006.2
20260505185718 71 211 1.0 4.0 0.00 0.00 0.00 46 1006.3
20260505185710 71 203 3.0 4.0 0.00 0.00 0.00 46 1006.3
20260505185655 71 201 0.0 3.0 0.00 0.00 0.00 46 1006.0
20260505185639 71 196 1.0 3.0 0.00 0.00 0.00 46 1006.4
20260505185118 71 200 1.0 3.0 0.00 0.00 0.00 46 1006.3
20260505185058 71 187 0.0 3.0 0.00 0.00 0.00 46 1006.3
20260505184958 71 199 2.0 3.0 0.00 0.00 0.00 45 1005.9
20260505184858 71 216 2.0 3.0 0.00 0.00 0.00 45 1006.3
20260505184758 71 186 0.0 3.0 0.00 0.00 0.00 45 1006.0
20260505184740 71 192 0.0 3.0 0.00 0.00 0.00 45 1006.2
20260505184726 71 193 0.0 3.0 0.00 0.00 0.00 45 1006.2
20260505184718 71 198 0.0 6.0 0.00 0.00 0.00 45 1006.2
20260505184358 71 204 0.0 6.0 0.00 0.00 0.00 45 1006.4
20260505184257 71 206 0.0 6.0 0.00 0.00 0.00 45 1006.5
20260505184157 71 206 0.0 6.0 0.00 0.00 0.00 45 1006.0
20260505184117 71 210 1.0 6.0 0.00 0.00 0.00 45 1006.2
20260505184058 72 209 1.0 6.0 0.00 0.00 0.00 45 1006.2
20260505184035 72 201 1.0 6.0 0.00 0.00 0.00 45 1006.3
20260505184019 72 226 2.0 6.0 0.00 0.00 0.00 45 1005.8
20260505183657 72 196 1.0 6.0 0.00 0.00 0.00 45 1006.4
20260505183618 72 210 3.0 6.0 0.00 0.00 0.00 45 1005.9
20260505183557 72 222 4.0 6.0 0.00 0.00 0.00 45 1005.9
20260505183457 72 214 2.0 4.0 0.00 0.00 0.00 45 1006.0
20260505183357 72 217 2.0 4.0 0.00 0.00 0.00 45 1005.8
20260505183258 72 226 1.0 4.0 0.00 0.00 0.00 45 1006.0
20260505183157 72 230 2.0 6.0 0.00 0.00 0.00 45 1006.2
20260505183105 72 177 2.0 6.0 0.00 0.00 0.00 44 1006.2
20260505183057 72 220 1.0 6.0 0.00 0.00 0.00 44 1006.2
20260505183036 72 215 1.0 6.0 0.00 0.00 0.00 44 1005.9
20260505183028 72 209 1.0 6.0 0.00 0.00 0.00 44 1006.2
20260505183012 72 211 1.0 6.0 0.00 0.00 0.00 44 1006.2
20260505182954 72 198 1.0 6.0 0.00 0.00 0.00 44 1006.3
20260505182939 72 196 1.0 6.0 0.00 0.00 0.00 44 1006.0
20260505182711 72 202 1.0 6.0 0.00 0.00 0.00 44 1005.9
20260505182351 72 207 0.0 6.0 0.00 0.00 0.00 44 1006.0
20260505182247 72 211 3.0 6.0 0.00 0.00 0.00 44 1006.2
20260505182148 72 214 4.0 6.0 0.00 0.00 0.00 43 1006.0
20260505182057 72 236 2.0 6.0 0.00 0.00 0.00 44 1006.0
20260505182047 72 208 1.0 6.0 0.00 0.00 0.00 44 1006.0
20260505182035 73 231 2.0 8.0 0.00 0.00 0.00 43 1005.9
20260505182030 73 194 1.0 8.0 0.00 0.00 0.00 43 1005.8
20260505182025 74 215 2.0 9.0 0.00 0.00 0.00 42 1005.7
20260505182017 72 200 0.0 8.0 0.00 0.00 0.00 44 1005.9
20260505182001 72 237 3.0 8.0 0.00 0.00 0.00 44 1006.0
20260505181946 72 225 2.0 8.0 0.00 0.00 0.00 43 1006.0
20260505181930 72 211 0.0 8.0 0.00 0.00 0.00 43 1005.8
20260505181702 73 207 0.0 8.0 0.00 0.00 0.00 43 1005.9
20260505181646 73 198 0.0 8.0 0.00 0.00 0.00 43 1006.0
20260505181631 73 200 0.0 8.0 0.00 0.00 0.00 43 1006.0
20260505181614 73 205 1.0 8.0 0.00 0.00 0.00 43 1005.8
20260505181558 73 208 0.0 8.0 0.00 0.00 0.00 43 1005.9
20260505181329 73 199 3.0 8.0 0.00 0.00 0.00 43 1005.8
20260505181314 73 200 0.0 7.0 0.00 0.00 0.00 43 1005.8
20260505181258 73 233 1.0 7.0 0.00 0.00 0.00 43 1005.9
20260505181023 73 222 2.0 9.0 0.00 0.00 0.00 42 1005.7
20260505181008 73 207 2.0 9.0 0.00 0.00 0.00 42 1006.2
20260505180740 73 237 2.0 9.0 0.00 0.00 0.00 42 1005.8
20260505180724 73 187 3.0 9.0 0.00 0.00 0.00 42 1006.0
20260505180447 73 207 1.0 9.0 0.00 0.00 0.00 42 1005.8
20260505175912 74 192 1.0 9.0 0.00 0.00 0.00 41 1006.0
20260505175856 74 209 6.0 13.0 0.00 0.00 0.00 41 1006.0
20260505175555 74 202 1.0 13.0 0.00 0.00 0.00 41 1006.3
20260505175534 74 252 2.0 13.0 0.00 0.00 0.00 41 1006.3
20260505175435 74 201 2.0 13.0 0.00 0.00 0.00 41 1005.9
20260505175333 74 188 5.0 13.0 0.00 0.00 0.00 40 1005.9
20260505175234 74 145 1.0 13.0 0.00 0.00 0.00 40 1005.9
20260505175213 74 222 2.0 13.0 0.00 0.00 0.00 40 1006.3
20260505175157 74 223 2.0 13.0 0.00 0.00 0.00 40 1005.8
20260505175149 74 171 1.0 13.0 0.00 0.00 0.00 40 1005.9
20260505174828 74 216 2.0 13.0 0.00 0.00 0.00 39 1005.8
20260505174728 74 225 6.0 13.0 0.00 0.00 0.00 39 1005.7
20260505174707 74 229 0.0 13.0 0.00 0.00 0.00 39 1005.9
20260505174651 74 201 3.0 13.0 0.00 0.00 0.00 39 1005.9
20260505174328 74 163 4.0 13.0 0.00 0.00 0.00 38 1005.7
20260505174228 74 207 2.0 13.0 0.00 0.00 0.00 38 1006.0
20260505174211 74 209 4.0 13.0 0.00 0.00 0.00 38 1005.9
20260505174155 74 217 5.0 13.0 0.00 0.00 0.00 37 1005.9
20260505174147 74 240 3.0 13.0 0.00 0.00 0.00 37 1005.8
20260505173827 75 265 1.0 13.0 0.00 0.00 0.00 36 1005.9
20260505173728 75 178 1.0 13.0 0.00 0.00 0.00 36 1005.8
20260505173629 75 221 0.0 13.0 0.00 0.00 0.00 36 1005.7
20260505173614 75 230 3.0 13.0 0.00 0.00 0.00 35 1005.7
20260505173607 75 284 7.0 13.0 0.00 0.00 0.00 35 1005.8
20260505173550 75 259 3.0 6.0 0.00 0.00 0.00 35 1005.8
20260505173228 75 192 0.0 6.0 0.00 0.00 0.00 35 1005.8
20260505173129 75 189 0.0 6.0 0.00 0.00 0.00 35 1005.8
20260505173049 75 248 0.0 6.0 0.00 0.00 0.00 33 1005.8
20260505173027 75 222 4.0 6.0 0.00 0.00 0.00 33 1005.7
20260505172917 75 227 0.0 7.0 0.00 0.00 0.00 33 1005.7
20260505172850 75 205 0.0 7.0 0.00 0.00 0.00 33 1005.8
20260505172835 75 194 0.0 7.0 0.00 0.00 0.00 33 1005.8
20260505172600 75 216 5.0 7.0 0.00 0.00 0.00 33 1005.7
20260505172551 75 194 0.0 8.0 0.00 0.00 0.00 33 1005.5
20260505172536 75 208 2.0 8.0 0.00 0.00 0.00 33 1005.5
20260505172215 76 198 0.0 8.0 0.00 0.00 0.00 33 1005.7
20260505172116 76 214 0.0 8.0 0.00 0.00 0.00 32 1005.6
20260505172106 76 208 2.0 15.0 0.00 0.00 0.00 31 1005.8
20260505172056 76 210 4.0 8.0 0.00 0.00 0.00 32 1005.6
20260505172047 76 203 4.0 8.0 0.00 0.00 0.00 32 1005.5
20260505172031 76 222 0.0 8.0 0.00 0.00 0.00 32 1005.8
20260505172014 76 201 0.0 8.0 0.00 0.00 0.00 32 1005.5
20260505171958 76 195 3.0 8.0 0.00 0.00 0.00 32 1005.7
20260505171943 76 198 1.0 14.0 0.00 0.00 0.00 32 1005.8
20260505171930 76 227 5.0 14.0 0.00 0.00 0.00 31 1005.8
20260505171450 76 195 3.0 14.0 0.00 0.00 0.00 31 1005.6
20260505171434 76 147 2.0 14.0 0.00 0.00 0.00 31 1005.6
20260505171418 76 228 2.0 15.0 0.00 0.00 0.00 31 1005.8
20260505171404 76 228 3.0 15.0 0.00 0.00 0.00 31 1005.8
20260505171136 76 217 1.0 15.0 0.00 0.00 0.00 31 1005.5
20260505170905 76 238 1.0 15.0 0.00 0.00 0.00 31 1005.7
20260505170857 76 219 3.0 15.0 0.00 0.00 0.00 31 1005.8
20260505170843 76 252 1.0 15.0 0.00 0.00 0.00 31 1005.4
20260505170828 76 187 0.0 15.0 0.00 0.00 0.00 32 1005.7
20260505170601 76 199 0.0 15.0 0.00 0.00 0.00 31 1005.6
20260505170544 76 278 6.0 15.0 0.00 0.00 0.00 31 1005.7
20260505170310 76 232 7.0 13.0 0.00 0.00 0.00 31 1005.6
20260505170042 76 214 4.0 10.0 0.00 0.00 0.00 31 1005.7
20260505165941 76 198 4.0 10.0 0.00 0.00 0.00 31 1005.7
20260505165843 76 198 0.0 10.0 0.00 0.00 0.00 31 1005.6
20260505165740 76 237 3.0 10.0 0.00 0.00 0.00 31 1005.6
20260505165641 76 222 2.0 10.0 0.00 0.00 0.00 31 1005.6
20260505165543 76 222 8.0 10.0 0.00 0.00 0.00 31 1005.7
20260505165442 76 229 5.0 10.0 0.00 0.00 0.00 31 1005.5
20260505165341 76 335 6.0 10.0 0.00 0.00 0.00 31 1005.7
20260505165322 76 199 4.0 6.0 0.00 0.00 0.00 31 1005.7
20260505165308 77 213 2.0 6.0 0.00 0.00 0.00 30 1005.8
20260505165039 77 192 2.0 6.0 0.00 0.00 0.00 31 1005.5
20260505164603 77 72 3.0 11.0 0.00 0.00 0.00 30 1005.7
20260505164503 77 261 2.0 11.0 0.00 0.00 0.00 31 1005.8
20260505164403 77 155 0.0 11.0 0.00 0.00 0.00 31 1005.8
20260505164347 77 216 1.0 11.0 0.00 0.00 0.00 31 1005.8
20260505164331 77 205 2.0 11.0 0.00 0.00 0.00 30 1005.9
20260505164103 77 183 2.0 11.0 0.00 0.00 0.00 30 1005.9
20260505164017 77 218 6.0 14.0 0.00 0.00 0.00 29 1005.8
20260505164013 77 172 0.0 14.0 0.00 0.00 0.00 29 1005.9
20260505164005 77 237 4.0 11.0 0.00 0.00 0.00 30 1005.9
20260505163949 77 217 3.0 11.0 0.00 0.00 0.00 30 1005.9
20260505163933 77 212 0.0 11.0 0.00 0.00 0.00 31 1005.8
20260505163917 77 265 5.0 11.0 0.00 0.00 0.00 30 1005.5
20260505163854 77 186 0.0 11.0 0.00 0.00 0.00 31 1005.9
20260505163838 77 212 5.0 11.0 0.00 0.00 0.00 30 1005.8
20260505163820 77 214 3.0 11.0 0.00 0.00 0.00 30 1005.8
20260505163317 77 107 1.0 11.0 0.00 0.00 0.00 30 1005.9
20260505163301 77 234 0.0 11.0 0.00 0.00 0.00 30 1005.8
20260505163245 77 186 0.0 11.0 0.00 0.00 0.00 31 1005.8
20260505163229 77 177 0.0 11.0 0.00 0.00 0.00 30 1005.6
20260505162946 77 231 4.0 11.0 0.00 0.00 0.00 30 1005.6
20260505162930 77 169 1.0 13.0 0.00 0.00 0.00 30 1005.7
20260505162912 77 248 2.0 13.0 0.00 0.00 0.00 30 1005.8
20260505162856 77 262 3.0 13.0 0.00 0.00 0.00 30 1005.8
20260505162612 77 127 0.0 13.0 0.00 0.00 0.00 30 1005.7
20260505162336 77 181 0.0 13.0 0.00 0.00 0.00 30 1005.7
20260505162322 77 206 0.0 13.0 0.00 0.00 0.00 30 1006.0
20260505162307 77 203 1.0 13.0 0.00 0.00 0.00 29 1005.9
20260505161820 77 137 1.0 14.0 0.00 0.00 0.00 29 1005.6
20260505161802 77 174 0.0 14.0 0.00 0.00 0.00 29 1005.7
20260505161746 77 151 1.0 14.0 0.00 0.00 0.00 29 1005.5
20260505161508 77 172 0.0 14.0 0.00 0.00 0.00 29 1005.9
20260505161243 78 226 4.0 14.0 0.00 0.00 0.00 29 1005.9
20260505161227 78 168 0.0 14.0 0.00 0.00 0.00 29 1005.8
20260505160952 78 214 5.0 14.0 0.00 0.00 0.00 29 1005.9
20260505160929 78 227 2.0 10.0 0.00 0.00 0.00 28 1005.8
20260505160913 78 211 5.0 10.0 0.00 0.00 0.00 29 1005.9
20260505160633 78 194 2.0 8.0 0.00 0.00 0.00 28 1005.9
20260505160617 78 223 2.0 8.0 0.00 0.00 0.00 28 1005.8
20260505160551 78 225 1.0 14.0 0.00 0.00 0.00 28 1005.8
20260505160315 78 217 3.0 14.0 0.00 0.00 0.00 28 1005.8
20260505153116 79 226 6.0 17.0 0.00 0.00 0.00 26 1006.0
20260505153101 79 134 3.0 26.0 0.00 0.00 0.00 25 1006.2
20260505153045 79 192 1.0 26.0 0.00 0.00 0.00 25 1005.9
20260505152512 79 326 5.0 26.0 0.00 0.00 0.00 25 1006.2
20260505152505 79 215 3.0 26.0 0.00 0.00 0.00 25 1006.2
20260505152410 79 238 2.0 26.0 0.00 0.00 0.00 25 1006.0
20260505152305 79 180 4.0 26.0 0.00 0.00 0.00 25 1006.2
20260505152205 79 237 6.0 26.0 0.00 0.00 0.00 25 1005.7
20260505152105 79 216 11.0 26.0 0.00 0.00 0.00 25 1005.8
20260505152012 79 234 9.0 26.0 0.00 0.00 0.00 25 1005.9
20260505152005 80 244 15.0 26.0 0.00 0.00 0.00 25 1005.9
20260505151947 79 334 7.0 17.0 0.00 0.00 0.00 26 1005.7
20260505151938 80 30 7.0 17.0 0.00 0.00 0.00 25 1006.0
20260505151921 80 235 1.0 17.0 0.00 0.00 0.00 26 1005.9
20260505151906 79 212 2.0 17.0 0.00 0.00 0.00 26 1005.9
20260505151849 79 267 6.0 17.0 0.00 0.00 0.00 26 1005.9
20260505151622 79 243 5.0 17.0 0.00 0.00 0.00 26 1005.7
20260505151258 79 141 4.0 17.0 0.00 0.00 0.00 26 1006.0
20260505151158 79 119 0.0 17.0 0.00 0.00 0.00 26 1005.6
20260505151058 79 243 6.0 17.0 0.00 0.00 0.00 26 1005.8
20260505151006 80 328 7.0 15.0 0.00 0.00 0.00 26 1005.9
20260505150957 80 309 7.0 15.0 0.00 0.00 0.00 26 1005.9
20260505150857 80 135 1.0 15.0 0.00 0.00 0.00 26 1005.8
20260505150757 80 90 4.0 15.0 0.00 0.00 0.00 26 1005.9
20260505150657 80 239 4.0 15.0 0.00 0.00 0.00 26 1005.8
20260505150558 80 229 1.0 15.0 0.00 0.00 0.00 25 1005.9
20260505150505 80 225 9.0 15.0 0.00 0.00 0.00 26 1005.5
20260505150457 80 225 9.0 16.0 0.00 0.00 0.00 26 1005.5
20260505150357 80 253 1.0 16.0 0.00 0.00 0.00 26 1005.8
20260505150334 80 207 3.0 16.0 0.00 0.00 0.00 26 1005.7
20260505150318 80 209 3.0 17.0 0.00 0.00 0.00 26 1005.7
20260505140540 80 236 6.0 19.0 0.00 0.00 0.00 26 1006.4
20260505140440 80 341 6.0 24.0 0.00 0.00 0.00 26 1006.4
20260505140424 80 232 9.0 24.0 0.00 0.00 0.00 26 1006.3
20260505140410 80 235 7.0 24.0 0.00 0.00 0.00 26 1006.3
20260505140354 80 200 3.0 24.0 0.00 0.00 0.00 27 1006.3
20260505130224 79 205 1.0 19.0 0.00 0.00 0.00 31 1006.5
20260505130218 79 227 5.0 26.0 0.00 0.00 0.00 30 1006.6
20260505130202 79 147 4.0 26.0 0.00 0.00 0.00 29 1006.5
20260505130147 79 158 4.0 26.0 0.00 0.00 0.00 29 1006.7
20260505130132 79 5 3.0 26.0 0.00 0.00 0.00 31 1006.7
20260505130117 79 134 4.0 26.0 0.00 0.00 0.00 30 1006.7
20260505124905 80 180 8.0 16.0 0.00 0.00 0.00 29 1006.9
20260505124857 80 208 2.0 15.0 0.00 0.00 0.00 30 1006.8
20260505124842 81 201 1.0 21.0 0.00 0.00 0.00 31 1006.8
20260505124826 81 223 9.0 21.0 0.00 0.00 0.00 29 1006.8
20260505124550 81 209 1.0 21.0 0.00 0.00 0.00 29 1006.9
20260505124310 80 217 0.0 23.0 0.00 0.00 0.00 29 1006.8
20260505124208 80 187 0.0 23.0 0.00 0.00 0.00 30 1007.1
20260505124110 80 171 6.0 23.0 0.00 0.00 0.00 30 1006.8
20260505124010 80 251 6.0 23.0 0.00 0.00 0.00 29 1006.9
20260505123911 80 228 8.0 23.0 0.00 0.00 0.00 30 1007.0
20260505123829 79 262 3.0 23.0 0.00 0.00 0.00 30 1007.1
20260505123809 79 232 12.0 23.0 0.00 0.00 0.00 30 1007.1
20260505123709 79 61 1.0 23.0 0.00 0.00 0.00 29 1007.1
20260505123645 79 291 7.0 23.0 0.00 0.00 0.00 29 1006.8
20260505123629 79 306 2.0 23.0 0.00 0.00 0.00 29 1006.8
20260505123342 79 228 4.0 21.0 0.00 0.00 0.00 29 1006.8
20260505123309 79 266 6.0 21.0 0.00 0.00 0.00 29 1006.8
20260505123209 79 216 2.0 21.0 0.00 0.00 0.00 30 1007.1
20260505123109 79 164 7.0 21.0 0.00 0.00 0.00 29 1006.9
20260505123004 79 172 8.0 19.0 0.00 0.00 0.00 29 1007.0
20260505122918 79 194 4.0 21.0 0.00 0.00 0.00 28 1006.9
20260505122911 79 220 10.0 19.0 0.00 0.00 0.00 29 1006.9
20260505122857 79 195 5.0 19.0 0.00 0.00 0.00 29 1006.9
20260505122849 79 90 3.0 19.0 0.00 0.00 0.00 29 1006.9
20260505122833 79 228 5.0 21.0 0.00 0.00 0.00 30 1007.2
20260505122609 79 205 5.0 21.0 0.00 0.00 0.00 29 1006.9
20260505122553 79 181 0.0 21.0 0.00 0.00 0.00 29 1007.1
20260505122538 79 232 4.0 21.0 0.00 0.00 0.00 29 1007.0
20260505122259 79 219 9.0 21.0 0.00 0.00 0.00 29 1006.9
20260505122158 79 47 1.0 21.0 0.00 0.00 0.00 30 1007.3
20260505122058 79 217 13.0 21.0 0.00 0.00 0.00 28 1007.0
20260505121958 79 165 1.0 21.0 0.00 0.00 0.00 29 1007.0
20260505121859 78 180 1.0 21.0 0.00 0.00 0.00 30 1006.9
20260505121832 78 183 9.0 21.0 0.00 0.00 0.00 29 1007.1
20260505121758 78 219 8.0 21.0 0.00 0.00 0.00 29 1007.1
20260505121723 78 72 5.0 17.0 0.00 0.00 0.00 29 1007.2
20260505121708 78 196 1.0 17.0 0.00 0.00 0.00 30 1007.1
20260505121652 78 197 6.0 17.0 0.00 0.00 0.00 29 1007.2
20260505121637 77 172 1.0 17.0 0.00 0.00 0.00 31 1007.3
20260505121622 77 182 2.0 17.0 0.00 0.00 0.00 30 1007.0
20260505121106 77 195 1.0 19.0 0.00 0.00 0.00 31 1007.4
20260505121051 77 199 5.0 19.0 0.00 0.00 0.00 30 1007.3
20260505121037 77 153 0.0 19.0 0.00 0.00 0.00 30 1007.3
20260505121023 77 145 1.0 19.0 0.00 0.00 0.00 30 1007.5
20260505121015 77 191 2.0 19.0 0.00 0.00 0.00 30 1007.5
20260505120738 77 224 6.0 19.0 0.00 0.00 0.00 30 1007.4
20260505120503 77 181 6.0 19.0 0.00 0.00 0.00 30 1007.4
20260505120449 77 233 5.0 19.0 0.00 0.00 0.00 30 1007.4
20260505120134 77 126 11.0 19.0 0.00 0.00 0.00 30 1007.4
20260505120033 77 107 3.0 14.0 0.00 0.00 0.00 29 1007.4
20260505115934 77 189 4.0 14.0 0.00 0.00 0.00 31 1007.3
20260505115833 78 196 0.0 15.0 0.00 0.00 0.00 30 1007.2
20260505115755 78 208 10.0 15.0 0.00 0.00 0.00 30 1007.2
20260505115734 78 208 10.0 15.0 0.00 0.00 0.00 29 1007.5
20260505115633 78 166 9.0 15.0 0.00 0.00 0.00 29 1007.5
20260505115533 78 210 7.0 15.0 0.00 0.00 0.00 30 1007.3
20260505115433 78 138 4.0 15.0 0.00 0.00 0.00 29 1007.2
20260505115335 78 174 0.0 15.0 0.00 0.00 0.00 29 1007.1
20260505115249 78 184 0.0 15.0 0.00 0.00 0.00 29 1007.1
20260505115229 78 178 1.0 15.0 0.00 0.00 0.00 28 1007.3
20260505115129 78 228 6.0 15.0 0.00 0.00 0.00 29 1007.1
20260505115028 78 259 4.0 15.0 0.00 0.00 0.00 30 1007.3
20260505114927 78 207 2.0 23.0 0.00 0.00 0.00 29 1007.2
20260505114824 78 185 3.0 23.0 0.00 0.00 0.00 28 1007.3
20260505114758 78 78 3.0 23.0 0.00 0.00 0.00 29 1007.3
20260505114750 78 275 6.0 23.0 0.00 0.00 0.00 29 1007.3
20260505114734 78 236 5.0 23.0 0.00 0.00 0.00 29 1007.5
20260505114719 78 217 6.0 23.0 0.00 0.00 0.00 28 1007.7
20260505114703 78 234 4.0 23.0 0.00 0.00 0.00 28 1007.5
20260505114429 78 153 1.0 23.0 0.00 0.00 0.00 28 1007.4
20260505114111 78 232 1.0 23.0 0.00 0.00 0.00 28 1007.3
20260505114011 78 218 2.0 23.0 0.00 0.00 0.00 29 1007.2
20260505113911 78 207 6.0 23.0 0.00 0.00 0.00 28 1007.3
20260505113811 78 219 15.0 23.0 0.00 0.00 0.00 28 1007.5
20260505113744 78 219 15.0 23.0 0.00 0.00 0.00 29 1007.5
20260505113659 78 253 7.0 22.0 0.00 0.00 0.00 29 1007.4
20260505113557 78 159 4.0 22.0 0.00 0.00 0.00 29 1007.4
20260505113459 78 289 4.0 22.0 0.00 0.00 0.00 29 1007.4
20260505113359 78 199 1.0 22.0 0.00 0.00 0.00 30 1007.5
20260505113259 79 231 17.0 22.0 0.00 0.00 0.00 28 1007.5
20260505113233 79 187 10.0 16.0 0.00 0.00 0.00 28 1007.5
20260505113157 79 213 3.0 16.0 0.00 0.00 0.00 29 1007.5
20260505113127 79 252 9.0 16.0 0.00 0.00 0.00 28 1007.4
20260505113111 80 303 6.0 19.0 0.00 0.00 0.00 28 1007.5
20260505112751 80 255 5.0 19.0 0.00 0.00 0.00 29 1007.5
20260505112737 80 276 3.0 19.0 0.00 0.00 0.00 29 1007.5
20260505112652 79 220 4.0 19.0 0.00 0.00 0.00 31 1007.3
20260505112552 79 241 4.0 19.0 0.00 0.00 0.00 31 1007.1
20260505112530 79 164 0.0 19.0 0.00 0.00 0.00 31 1007.5
20260505112514 79 165 0.0 19.0 0.00 0.00 0.00 31 1007.6
20260505112245 79 190 2.0 18.0 0.00 0.00 0.00 31 1007.7
20260505112238 78 199 0.0 19.0 0.00 0.00 0.00 32 1007.5
20260505112225 78 196 0.0 19.0 0.00 0.00 0.00 32 1007.3
20260505112209 78 200 5.0 19.0 0.00 0.00 0.00 31 1007.6
20260505112154 78 197 1.0 18.0 0.00 0.00 0.00 32 1007.6
20260505112137 78 184 11.0 18.0 0.00 0.00 0.00 31 1007.4
20260505112121 79 227 6.0 18.0 0.00 0.00 0.00 31 1007.7
20260505112109 79 219 10.0 18.0 0.00 0.00 0.00 31 1007.7
20260505112059 79 174 8.0 18.0 0.00 0.00 0.00 31 1007.6
20260505112044 79 241 3.0 18.0 0.00 0.00 0.00 31 1007.5
20260505112028 79 213 2.0 18.0 0.00 0.00 0.00 30 1007.5
20260505111753 79 190 2.0 18.0 0.00 0.00 0.00 30 1007.7
20260505111303 78 233 6.0 17.0 0.00 0.00 0.00 31 1007.7
20260505111248 78 219 5.0 21.0 0.00 0.00 0.00 31 1007.3
20260505111232 78 185 2.0 21.0 0.00 0.00 0.00 31 1007.5
20260505111000 78 193 3.0 21.0 0.00 0.00 0.00 30 1007.7
20260505110729 78 198 6.0 21.0 0.00 0.00 0.00 31 1007.6
20260505110713 78 171 10.0 21.0 0.00 0.00 0.00 30 1007.5
20260505110659 78 187 4.0 21.0 0.00 0.00 0.00 31 1007.5
20260505110426 78 199 4.0 21.0 0.00 0.00 0.00 30 1007.9
20260505110154 78 218 6.0 18.0 0.00 0.00 0.00 30 1007.6
20260505102052 77 239 4.0 22.0 0.00 0.00 0.00 32 1008.0
20260505102029 77 25 10.0 22.0 0.00 0.00 0.00 32 1007.9
20260505101531 77 205 8.0 27.0 0.00 0.00 0.00 32 1008.0
20260505101515 77 156 0.0 27.0 0.00 0.00 0.00 32 1007.9
20260505101247 76 239 7.0 27.0 0.00 0.00 0.00 31 1008.3
20260505100928 76 158 2.0 27.0 0.00 0.00 0.00 31 1008.1
20260505100824 76 193 2.0 27.0 0.00 0.00 0.00 31 1008.3
20260505100724 76 329 4.0 27.0 0.00 0.00 0.00 31 1008.3
20260505100705 76 270 5.0 27.0 0.00 0.00 0.00 31 1008.1
20260505100658 76 187 3.0 27.0 0.00 0.00 0.00 31 1008.1
20260505100643 76 207 5.0 27.0 0.00 0.00 0.00 31 1008.3
20260505100627 77 212 10.0 27.0 0.00 0.00 0.00 30 1008.3
20260505100351 76 219 6.0 27.0 0.00 0.00 0.00 30 1008.3
20260505100335 76 330 5.0 27.0 0.00 0.00 0.00 31 1007.9
20260505100022 76 210 9.0 27.0 0.00 0.00 0.00 30 1008.2
20260505095957 76 80 4.0 27.0 0.00 0.00 0.00 30 1007.9
20260505095941 76 106 6.0 22.0 0.00 0.00 0.00 31 1008.1
20260505095703 77 182 9.0 22.0 0.00 0.00 0.00 31 1008.0
20260505095656 77 359 3.0 22.0 0.00 0.00 0.00 30 1008.0
20260505095641 77 227 10.0 22.0 0.00 0.00 0.00 30 1008.0
20260505095318 78 195 9.0 14.0 0.00 0.00 0.00 31 1008.2
20260505095216 78 260 6.0 14.0 0.00 0.00 0.00 30 1008.2
20260505095125 78 208 6.0 14.0 0.00 0.00 0.00 32 1008.2
20260505095117 78 211 7.0 14.0 0.00 0.00 0.00 32 1008.2
20260505095018 78 190 2.0 14.0 0.00 0.00 0.00 32 1008.3
20260505094958 77 209 4.0 14.0 0.00 0.00 0.00 31 1008.1
20260505094943 77 160 1.0 19.0 0.00 0.00 0.00 33 1008.2
20260505094706 78 196 3.0 19.0 0.00 0.00 0.00 31 1007.9
20260505094659 78 196 3.0 19.0 0.00 0.00 0.00 32 1007.9
20260505094643 78 207 6.0 19.0 0.00 0.00 0.00 32 1008.3
20260505094624 78 195 4.0 19.0 0.00 0.00 0.00 32 1008.4
20260505094347 78 216 2.0 19.0 0.00 0.00 0.00 31 1008.2
20260505094328 78 221 6.0 19.0 0.00 0.00 0.00 31 1008.3
20260505094017 78 91 6.0 19.0 0.00 0.00 0.00 31 1008.2
20260505093915 78 193 7.0 19.0 0.00 0.00 0.00 31 1008.0
20260505093804 78 220 7.0 17.0 0.00 0.00 0.00 31 1008.1
20260505093745 78 188 9.0 17.0 0.00 0.00 0.00 32 1008.3
20260505093729 78 199 2.0 17.0 0.00 0.00 0.00 32 1008.2
20260505093721 78 165 11.0 17.0 0.00 0.00 0.00 32 1008.2
20260505093357 77 274 3.0 22.0 0.00 0.00 0.00 33 1008.3
20260505093258 77 230 4.0 22.0 0.00 0.00 0.00 35 1008.3
20260505093212 76 43 2.0 22.0 0.00 0.00 0.00 35 1008.3
20260505093157 76 200 0.0 22.0 0.00 0.00 0.00 35 1008.1
20260505093147 76 165 0.0 22.0 0.00 0.00 0.00 35 1008.1
20260505093131 76 211 4.0 22.0 0.00 0.00 0.00 33 1008.0
20260505093115 76 203 6.0 22.0 0.00 0.00 0.00 33 1008.3
20260505092837 77 279 8.0 22.0 0.00 0.00 0.00 33 1008.2
20260505092822 77 213 9.0 23.0 0.00 0.00 0.00 33 1008.2
20260505092554 76 199 5.0 24.0 0.00 0.00 0.00 33 1008.3
20260505092234 76 223 2.0 24.0 0.00 0.00 0.00 35 1008.3
20260505092133 76 178 6.0 24.0 0.00 0.00 0.00 33 1008.2
20260505092101 76 227 13.0 24.0 0.00 0.00 0.00 35 1008.2
20260505092029 76 199 2.0 24.0 0.00 0.00 0.00 33 1008.5
20260505092003 76 165 5.0 24.0 0.00 0.00 0.00 33 1008.3
20260505091947 76 222 5.0 24.0 0.00 0.00 0.00 35 1008.3
20260505091703 76 227 8.0 24.0 0.00 0.00 0.00 32 1008.4
20260505091650 76 199 9.0 24.0 0.00 0.00 0.00 32 1008.4
20260505091641 76 217 10.0 22.0 0.00 0.00 0.00 33 1008.6
20260505091321 76 140 1.0 22.0 0.00 0.00 0.00 35 1008.3
20260505091220 76 233 9.0 22.0 0.00 0.00 0.00 35 1008.2
20260505091149 76 58 10.0 23.0 0.00 0.00 0.00 35 1008.3
20260505091131 76 148 11.0 23.0 0.00 0.00 0.00 36 1008.3
20260505091122 76 196 12.0 23.0 0.00 0.00 0.00 35 1008.3
20260505091107 76 54 2.0 35.0 0.00 0.00 0.00 36 1008.4
20260505091050 77 158 2.0 35.0 0.00 0.00 0.00 35 1008.4
20260505091035 77 135 6.0 35.0 0.00 0.00 0.00 35 1008.5
20260505090801 76 174 4.0 35.0 0.00 0.00 0.00 35 1008.4
20260505090417 76 187 4.0 35.0 0.00 0.00 0.00 35 1008.6
20260505090402 77 160 6.0 35.0 0.00 0.00 0.00 35 1008.4
20260505090353 76 212 11.0 35.0 0.00 0.00 0.00 33 1008.6
20260505090335 77 211 15.0 35.0 0.00 0.00 0.00 33 1008.4
20260505090319 77 199 12.0 35.0 0.00 0.00 0.00 35 1008.4
20260505090016 77 215 12.0 19.0 0.00 0.00 0.00 35 1008.5
20260505085932 76 228 4.0 16.0 0.00 0.00 0.00 38 1008.5
20260505085915 76 101 7.0 16.0 0.00 0.00 0.00 37 1008.5
20260505085553 76 209 3.0 15.0 0.00 0.00 0.00 38 1008.5
20260505085443 76 217 4.0 15.0 0.00 0.00 0.00 38 1008.4
20260505085342 76 214 5.0 15.0 0.00 0.00 0.00 39 1008.7
20260505085241 76 135 2.0 15.0 0.00 0.00 0.00 39 1008.5
20260505085143 76 146 5.0 15.0 0.00 0.00 0.00 39 1008.4
20260505085041 76 226 11.0 15.0 0.00 0.00 0.00 38 1008.5
20260505084725 75 222 9.0 26.0 0.00 0.00 0.00 38 1008.7
20260505084708 75 225 5.0 26.0 0.00 0.00 0.00 39 1008.6
20260505084651 75 297 7.0 26.0 0.00 0.00 0.00 39 1008.8
20260505084644 75 213 15.0 26.0 0.00 0.00 0.00 39 1008.8
20260505084322 75 217 9.0 13.0 0.00 0.00 0.00 40 1008.7
20260505084305 75 157 5.0 13.0 0.00 0.00 0.00 41 1008.6
20260505084256 75 204 5.0 13.0 0.00 0.00 0.00 41 1008.8
20260505084240 75 72 4.0 13.0 0.00 0.00 0.00 41 1008.6
20260505084012 75 144 4.0 13.0 0.00 0.00 0.00 41 1008.6
20260505083912 75 190 2.0 13.0 0.00 0.00 0.00 41 1008.7
20260505083811 75 145 2.0 14.0 0.00 0.00 0.00 43 1008.8
20260505083711 74 185 0.0 14.0 0.00 0.00 0.00 43 1008.7
20260505083611 74 205 1.0 14.0 0.00 0.00 0.00 43 1008.8
20260505083520 74 189 6.0 14.0 0.00 0.00 0.00 43 1008.8
20260505083513 74 255 6.0 14.0 0.00 0.00 0.00 43 1008.8
20260505083406 74 146 2.0 14.0 0.00 0.00 0.00 43 1008.9
20260505083300 74 220 2.0 14.0 0.00 0.00 0.00 42 1008.6
20260505083200 74 73 4.0 14.0 0.00 0.00 0.00 43 1008.8
20260505083058 74 188 4.0 14.0 0.00 0.00 0.00 43 1008.9
20260505083018 74 206 5.0 14.0 0.00 0.00 0.00 43 1008.8
20260505082958 74 203 5.0 14.0 0.00 0.00 0.00 43 1008.8
20260505082847 74 217 12.0 14.0 0.00 0.00 0.00 43 1009.0
20260505082741 74 139 3.0 14.0 0.00 0.00 0.00 43 1008.7
20260505082701 74 179 8.0 14.0 0.00 0.00 0.00 42 1009.0
20260505082639 74 26 2.0 14.0 0.00 0.00 0.00 43 1008.9
20260505082317 74 187 2.0 14.0 0.00 0.00 0.00 43 1008.9
20260505082218 74 210 4.0 14.0 0.00 0.00 0.00 42 1008.9
20260505082117 74 213 10.0 14.0 0.00 0.00 0.00 42 1008.8
20260505082017 74 151 2.0 14.0 0.00 0.00 0.00 42 1009.1
20260505081916 73 243 3.0 16.0 0.00 0.00 0.00 43 1008.9
20260505081818 73 221 6.0 18.0 0.00 0.00 0.00 42 1009.1
20260505081717 73 198 5.0 18.0 0.00 0.00 0.00 43 1008.9
20260505081701 73 146 4.0 18.0 0.00 0.00 0.00 42 1008.7
20260505081639 74 191 5.0 18.0 0.00 0.00 0.00 42 1009.0
20260505081317 74 135 1.0 18.0 0.00 0.00 0.00 43 1009.1
20260505081217 74 206 7.0 18.0 0.00 0.00 0.00 42 1009.3
20260505081118 74 206 1.0 18.0 0.00 0.00 0.00 42 1009.1
20260505081052 74 269 7.0 18.0 0.00 0.00 0.00 41 1009.0
20260505081036 74 243 9.0 13.0 0.00 0.00 0.00 41 1009.1
20260505081020 74 193 6.0 10.0 0.00 0.00 0.00 42 1009.0
20260505081004 74 202 3.0 10.0 0.00 0.00 0.00 42 1009.2
20260505080948 74 186 2.0 10.0 0.00 0.00 0.00 42 1009.1
20260505080930 74 198 5.0 10.0 0.00 0.00 0.00 42 1009.0
20260505080704 74 208 3.0 10.0 0.00 0.00 0.00 42 1009.2
20260505080647 74 200 3.0 8.0 0.00 0.00 0.00 41 1009.2
20260505080630 74 203 2.0 8.0 0.00 0.00 0.00 42 1009.1